Find Starlink 32239

NORAD ID: 61892 Int'l Des: 2024-204 Owner: SPXS Country: US Constellation: starlink operational
LEOCIRCULAR

实时位置

正在加载3D地球...

关于 Starlink 32239

正在加载描述...

即将过境

Passes for default location (London). Set your location on the main map for personalized predictions.

高度历史

Loading altitude history...

两行轨道根数

1 61892U 24204U 26123.62169793 .00001102 00000-0 49325-4 0 9996
2 61892 53.1598 232.2279 0001040 88.6785 271.4335 15.30186989 83504
Epoch: May 3, 2026 • Age: 15 hours

当前状态

高度 477.2 km
速度 7.63 km/s
星下点 -6.01°S, 104.04°E
发射日期 Nov 9, 2024
运行时间 1.4 years
类型 internet

技术详情

分类 Payload
质量 730.00 kg
干质量 700.00 kg
总质量 730.00 kg
长度 0.30 m
直径 4.10 m
跨度 29.00 m
形状 Box + pan
制造商 SPXS
平台类型 Starlink V2M
阶段状态 In Orbit
所有者/国家 SPXS/US

Most Searched